Find Starlink 1153

NORAD ID: 45080 Int'l Des: 2020-006 Owner: SPXS Country: US Constellation: starlink operational
LEOCIRCULAR

現在のビュー

3D地球を読み込み中...

About Starlink 1153

Starlink 1153 (NORAD 45080) is a starlink constellation satellite (v1.0) launched Jan 29, 2020 by SPXS of US. It operates in LEO, CIRCULAR orbit with a mass of 260.00 kg.

Starlink 1153について

説明を読み込み中...

次回通過

Passes for default location (London). Set your location on the main map for personalized predictions.

高度履歴

Loading altitude history...

軌道要素

1 45080U 20006AN 26171.23322995 .00041798 00000-0 10834-2 0 9994
2 45080 53.1570 138.7511 0005715 10.0414 350.0704 15.38624477352617
Epoch: Jun 20, 2026 • Age: 19 hours

現在のステータス

高度 448.4 km
速度 7.65 km/s
衛星直下点 30.90°N, 114.83°W
打ち上げ日 Jan 29, 2020
運用期間 6.3 years
タイプ internet

技術仕様

分類 Payload
質量 260.00 kg
乾燥質量 248.00 kg
総質量 260.00 kg
長さ 0.20 m
直径 2.80 m
スパン 9.00 m
形状 Box + pan
製造者 SPXS
バスタイプ Starlink
フェーズステータス In Orbit
所有者/国 SPXS/US

Most Searched